[[{"header":{"parameterUnit":"m.s-1","parameterCategory":1,"la1":30.2991,"la2":30.254,"lo1":-89.0895,"lo2":-89.0444,"dy":0.0017,"dx":0.0017,"nx":28,"ny":28,"refTime":"2024-12-05T09:00:00:Z","depth":0,"parameterNumber":2,"parameterNumberName":"U-component_of_WINDS"},"data":[0,0,0,0,0,0,0,0,0,0,0,0,0,0,0,0,0,0,0,0,0,0,0,0,0,0,0,0,0,0,0,0,0,0,0,0,0,0,0,0,0,0,0,0,0,0,0,0,0,0,0,0,0,0,0,0,0,0,-1.4222,-1.4222,0,-1.424,-1.424,-1.424,-1.4208,-1.4207,-1.4206,-1.4205,-1.4224,-1.4225,-1.4227,0,0,0,0,0,0,0,0,0,0,0,0,0,-1.4161,-1.4162,-1.4222,-1.4222,-1.4223,-1.424,-1.424,-1.424,-1.4209,-1.4207,-1.4206,-1.4205,-1.4223,-1.4225,-1.4227,0,0,0,0,0,0,0,0,0,0,0,0,0,-1.4184,-1.4163,-1.4222,-1.4209,-1.4208,-1.424,-1.424,-1.424,-1.4209,-1.4207,-1.4206,-1.4204,-1.4223,-1.4225,-1.4227,-1.4273,0,0,-1.4234,-1.4235,0,0,0,0,0,0,0,0,-1.4183,-1.4186,-1.4211,-1.421,-1.4209,-1.422,-1.4225,-1.4251,-1.4209,-1.4209,-1.4205,-1.4203,-1.4224,-1.4226,-1.4233,-1.4274,-1.4274,-1.4234,-1.4235,-1.4236,-1.4237,0,0,0,0,0,0,0,-1.4181,-1.4185,-1.4229,-1.4211,-1.421,-1.4202,-1.4203,-1.423,-1.4225,-1.4208,-1.4206,-1.4209,-1.4223,-1.4231,-1.4233,-1.4275,-1.4234,-1.4236,-1.4237,-1.4238,-1.4354,-1.4356,0,0,0,0,0,0,-1.4181,-1.4184,-1.4229,-1.423,-1.4192,-1.4204,-1.4206,-1.4218,-1.4225,-1.4224,-1.421,-1.4207,-1.4228,-1.423,-1.4233,-1.4288,-1.4236,-1.4238,-1.424,-1.4352,-1.4354,-1.4356,0,0,0,0,0,0,-1.418,-1.4186,-1.4228,-1.4206,-1.4211,-1.4207,-1.4221,-1.4219,-1.4227,-1.4226,-1.4225,-1.4219,-1.4226,-1.423,-1.4263,-1.4288,-1.4239,-1.4241,-1.435,-1.4353,-1.4355,-1.4397,0,0,0,0,0,0,-1.4178,-1.4185,-1.4203,-1.4207,-1.4212,-1.4258,-1.4223,-1.4221,-1.4231,-1.4227,-1.4234,-1.4233,-1.4226,-1.426,-1.4265,-1.429,-1.4243,-1.4348,-1.4351,-1.4354,-1.4393,-1.4401,-1.4407,0,0,0,0,0,-1.4176,-1.4214,-1.4204,-1.4209,-1.4234,-1.4259,-1.4262,-1.4253,-1.4233,-1.4251,-1.425,-1.4233,-1.4284,-1.4264,-1.4269,-1.4295,-1.4346,-1.435,-1.4354,-1.439,-1.4399,-1.4407,0,0,0,0,0,0,-1.4213,-1.4214,-1.4203,-1.4243,-1.4251,-1.4254,-1.4276,-1.4262,-1.4276,-1.4272,-1.426,-1.4261,-1.4297,-1.4299,-1.4276,-1.434,-1.4312,-1.4317,-1.4337,-1.4346,-1.4352,-1.4352,-1.4245,0,0,0,0,0,-1.4226,-1.4246,-1.4246,-1.4281,-1.4285,-1.428,-1.429,-1.4282,-1.429,-1.4293,-1.4295,-1.4303,-1.4321,-1.4333,-1.435,-1.4393,-1.4394,-1.4413,-1.442,-1.4426,-1.4431,-1.4454,-1.4463,-1.4369,-1.4369,-1.4369,0,0,-1.4252,-1.4255,-1.4269,-1.4288,-1.4294,-1.4315,-1.4283,-1.4307,-1.4323,-1.4297,-1.4328,-1.433,-1.4338,-1.4376,-1.4393,-1.4379,-1.4457,-1.4431,-1.4435,-1.4437,-1.4459,-1.4468,-1.4476,-1.4372,-1.4371,-1.4371,0,0,-1.4312,-1.4316,-1.4346,-1.4352,-1.436,-1.4356,-1.4363,-1.4367,-1.4367,-1.4398,-1.438,-1.4398,-1.4429,-1.4436,-1.4443,-1.4505,-1.449,-1.451,-1.4546,-1.4569,-1.4576,-1.4583,-1.4605,-1.4614,-1.4515,-1.4515,-1.4515,0,-1.4344,-1.4375,-1.4363,-1.4388,-1.4397,-1.4375,-1.4405,-1.4411,-1.4425,-1.4432,-1.4415,-1.4454,-1.4458,-1.4498,-1.4512,-1.4519,-1.4527,-1.451,-1.4576,-1.4583,-1.4588,-1.461,-1.4618,-1.4517,-1.4517,-1.4517,-1.4517,0,-1.4415,-1.4436,-1.446,-1.4473,-1.4485,-1.4512,-1.4504,-1.4517,-1.4508,-1.4505,-1.4537,-1.4541,-1.4558,-1.4566,-1.4557,-1.4605,-1.4596,-1.4578,-1.455,-1.46,-1.462,-1.4628,-1.4521,-1.452,-1.4519,-1.4519,0,0,-1.4499,-1.4505,-1.4514,-1.4519,-1.4526,-1.4543,-1.4569,-1.4586,-1.4598,-1.4607,-1.4629,-1.4655,-1.4639,-1.4648,-1.4639,-1.4659,-1.4708,-1.4638,-1.4638,-1.4652,-1.4761,-1.4775,-1.4785,-1.4697,-1.4699,-1.47,-1.476,0,-1.4559,-1.4605,-1.4594,-1.4639,-1.466,-1.4638,-1.4661,-1.4667,-1.4665,-1.4682,-1.468,-1.4699,-1.4675,-1.468,-1.4699,-1.4698,-1.4729,-1.4693,-1.4718,-1.4719,-1.4718,-1.4795,-1.481,-1.4868,-1.4768,-1.4769,-1.477,0,-1.4635,-1.4648,-1.4695,-1.4699,-1.4707,-1.4728,-1.4742,-1.4758,-1.4765,-1.4762,-1.4771,-1.4758,-1.4784,-1.4755,-1.4791,-1.4766,-1.4775,-1.4776,-1.4778,-1.4781,-1.4749,-1.4801,-1.4885,-1.4895,-1.4782,-1.4781,-1.478,0,-1.4694,-1.4722,-1.4754,-1.4759,-1.4764,-1.4779,-1.4782,-1.4787,-1.4798,-1.481,-1.4816,-1.4831,-1.484,-1.4851,-1.4843,-1.4822,-1.488,-1.485,-1.4879,-1.4879,-1.4894,-1.4893,-1.4982,-1.4898,-1.4897,-1.4897,-1.4897,0,-1.4763,-1.4793,-1.478,-1.48,-1.4833,-1.482,-1.4853,-1.4853,-1.4858,-1.4877,-1.4858,-1.4877,-1.4864,-1.4881,-1.4875,-1.4906,-1.4909,-1.4908,-1.4906,-1.4911,-1.4911,-1.4918,-1.4914,-1.49,-1.4899,-1.4899,-1.4898,0,-1.4834,-1.4827,-1.486,-1.4862,-1.4863,-1.4887,-1.4888,-1.4907,-1.4903,-1.4927,-1.4932,-1.4927,-1.4946,-1.4938,-1.4959,-1.4954,-1.4994,-1.4986,-1.4992,-1.4991,-1.5021,-1.5018,-1.5118,-1.513,-1.5037,-1.5038,-1.5039,0,-1.4879,-1.4902,-1.4905,-1.4917,-1.4921,-1.494,-1.495,-1.4938,-1.4949,-1.4959,-1.4976,-1.4994,-1.5008,-1.504,-1.5037,-1.5053,-1.5046,-1.508,-1.5048,-1.5052,-1.5048,-1.5047,-1.505,-1.5087,-1.5088,-1.5089,-1.5089,0,-1.496,-1.4955,-1.4971,-1.4986,-1.4999,-1.5009,-1.5018,-1.5029,-1.5017,-1.5031,-1.5051,-1.5061,-1.5082,-1.51,-1.5114,-1.5116,-1.5101,-1.5099,-1.5107,-1.5112,-1.5115,-1.5115,-1.5011,-1.5097,-1.5096,-1.5096,-1.5095,-1.5095,-1.5021,-1.504,-1.5046,-1.5064,-1.5069,-1.5078,-1.5095,-1.5093,-1.5109,-1.5125,-1.5117,-1.514,-1.5146,-1.5162,-1.5167,-1.5185,-1.5171,-1.5183,-1.5186,-1.5189,-1.5193,-1.5111,-1.5187,-1.5187,-1.5186,-1.5186,-1.5186,0,-1.5102,-1.5104,-1.5121,-1.5134,-1.5148,-1.5132,-1.5141,-1.5154,-1.5174,-1.5181,-1.5195,-1.5217,-1.5234,-1.5233,-1.5249,-1.5263,-1.5257,-1.5268,-1.5267,-1.5268,-1.5204,-1.5196,-1.5273,-1.5273,-1.5273,-1.5273,-1.5273,-1.5273,-1.5146,-1.5178,-1.5173,-1.5207,-1.5209,-1.5232,-1.5238,-1.5246,-1.5252,-1.5278,-1.5292,-1.529,-1.5294,-1.5309,-1.5324,-1.5323,-1.533,-1.5345,-1.5341,-1.5281,-1.5273,-1.5265,-1.5257,-1.5346,-1.5346,-1.5404,-1.5405,-1.5405]},{"header":{"parameterUnit":"m.s-1","parameterCategory":1,"la1":30.2991,"la2":30.254,"lo1":-89.0895,"lo2":-89.0444,"dy":0.0017,"dx":0.0017,"nx":28,"ny":28,"refTime":"2024-12-05T09:00:00:Z","depth":0,"parameterNumber":3,"parameterNumberName":"V-component_of_WINDS"},"data":[0,0,0,0,0,0,0,0,0,0,0,0,0,0,0,0,0,0,0,0,0,0,0,0,0,0,0,0,0,0,0,0,0,0,0,0,0,0,0,0,0,0,0,0,0,0,0,0,0,0,0,0,0,0,0,0,0,0,-5.3026,-5.3027,0,-5.3081,-5.3081,-5.3082,-5.3042,-5.3041,-5.3039,-5.3037,-5.3088,-5.3091,-5.3094,0,0,0,0,0,0,0,0,0,0,0,0,0,-5.2885,-5.2887,-5.3026,-5.3027,-5.3028,-5.308,-5.3081,-5.3082,-5.3043,-5.304,-5.3038,-5.3036,-5.3087,-5.309,-5.3094,0,0,0,0,0,0,0,0,0,0,0,0,0,-5.2943,-5.2888,-5.3026,-5.3015,-5.3014,-5.308,-5.3081,-5.3082,-5.3043,-5.304,-5.3038,-5.3035,-5.3086,-5.309,-5.3094,-5.3173,0,0,-5.3108,-5.311,0,0,0,0,0,0,0,0,-5.294,-5.2948,-5.3016,-5.3016,-5.3015,-5.3052,-5.305,-5.3113,-5.3044,-5.3032,-5.3037,-5.3034,-5.3078,-5.3083,-5.3098,-5.3176,-5.3178,-5.3108,-5.3111,-5.3113,-5.3114,0,0,0,0,0,0,0,-5.2936,-5.2946,-5.3048,-5.3017,-5.3016,-5.3005,-5.3011,-5.3061,-5.3068,-5.3033,-5.303,-5.3037,-5.3077,-5.3094,-5.3099,-5.3179,-5.3108,-5.3112,-5.3115,-5.3117,-5.3325,-5.3327,0,0,0,0,0,0,-5.2933,-5.2943,-5.3046,-5.3049,-5.2971,-5.301,-5.3016,-5.3043,-5.3068,-5.3069,-5.3039,-5.3035,-5.3088,-5.3094,-5.3101,-5.3196,-5.3113,-5.3117,-5.3119,-5.3322,-5.3325,-5.3328,0,0,0,0,0,0,-5.2931,-5.2943,-5.3044,-5.2995,-5.3007,-5.3015,-5.3045,-5.3045,-5.3062,-5.3073,-5.3074,-5.3056,-5.3086,-5.3095,-5.3156,-5.3197,-5.3119,-5.3123,-5.3318,-5.3323,-5.3327,-5.3387,0,0,0,0,0,0,-5.2927,-5.2942,-5.2973,-5.2996,-5.301,-5.31,-5.3048,-5.3048,-5.3071,-5.3066,-5.3089,-5.309,-5.3085,-5.315,-5.3161,-5.3202,-5.3126,-5.3315,-5.332,-5.3325,-5.3381,-5.3393,-5.3402,0,0,0,0,0,-5.2922,-5.2987,-5.2975,-5.2988,-5.3049,-5.3102,-5.311,-5.3104,-5.3074,-5.3105,-5.3112,-5.3089,-5.3191,-5.3156,-5.3168,-5.3212,-5.3312,-5.3319,-5.3325,-5.3376,-5.339,-5.3402,0,0,0,0,0,0,-5.2966,-5.299,-5.2977,-5.3052,-5.3076,-5.3096,-5.3134,-5.3119,-5.315,-5.3144,-5.3134,-5.3139,-5.3204,-5.3214,-5.3175,-5.329,-5.3247,-5.3256,-5.3282,-5.3295,-5.3305,-5.3302,-5.313,0,0,0,0,0,-5.2985,-5.3028,-5.3045,-5.3109,-5.3122,-5.3126,-5.3149,-5.3143,-5.3166,-5.3176,-5.3187,-5.3209,-5.3246,-5.3271,-5.3305,-5.3382,-5.3387,-5.3417,-5.3428,-5.3437,-5.3445,-5.3487,-5.3501,-5.335,-5.3349,-5.3349,0,0,-5.3024,-5.3042,-5.3069,-5.3119,-5.3136,-5.318,-5.3135,-5.3182,-5.3214,-5.3182,-5.3242,-5.3251,-5.3275,-5.3345,-5.3376,-5.3355,-5.3488,-5.3445,-5.3452,-5.3455,-5.3495,-5.3509,-5.3522,-5.3354,-5.3353,-5.3352,0,0,-5.3117,-5.3135,-5.3191,-5.321,-5.3239,-5.3241,-5.3255,-5.3277,-5.3283,-5.3343,-5.3321,-5.3357,-5.3421,-5.344,-5.3458,-5.3559,-5.3539,-5.357,-5.3626,-5.3667,-5.3679,-5.3689,-5.3726,-5.374,-5.3578,-5.3578,-5.3578,0,-5.3161,-5.3227,-5.3221,-5.3271,-5.3294,-5.3269,-5.3325,-5.3343,-5.3381,-5.3396,-5.3372,-5.3453,-5.3467,-5.3542,-5.3567,-5.3581,-5.3596,-5.3568,-5.3678,-5.3688,-5.3698,-5.3733,-5.3747,-5.3582,-5.3581,-5.3581,-5.3581,0,-5.3281,-5.3327,-5.3368,-5.3408,-5.3435,-5.3487,-5.3488,-5.3516,-5.3507,-5.3512,-5.3574,-5.359,-5.3629,-5.3645,-5.3636,-5.3719,-5.3705,-5.3679,-5.3636,-5.3716,-5.3749,-5.3763,-5.3587,-5.3586,-5.3585,-5.3584,0,0,-5.3403,-5.344,-5.3456,-5.3474,-5.3503,-5.3538,-5.3589,-5.3628,-5.3653,-5.3679,-5.3722,-5.3777,-5.3754,-5.3774,-5.3767,-5.3803,-5.3884,-5.3773,-5.3774,-5.3794,-5.3976,-5.3996,-5.4012,-5.387,-5.3873,-5.3875,-5.3975,0,-5.3499,-5.3591,-5.3588,-5.3673,-5.3715,-5.3693,-5.3737,-5.376,-5.3765,-5.3801,-5.3806,-5.3847,-5.3813,-5.3825,-5.386,-5.3867,-5.392,-5.3859,-5.391,-5.3911,-5.3906,-5.4029,-5.405,-5.4143,-5.3987,-5.3989,-5.3991,0,-5.3623,-5.3657,-5.3747,-5.3772,-5.3789,-5.383,-5.3866,-5.3901,-5.3925,-5.3927,-5.395,-5.3937,-5.3988,-5.3943,-5.4013,-5.3972,-5.3992,-5.3998,-5.4002,-5.4007,-5.3957,-5.4038,-5.4172,-5.4187,-5.4011,-5.4009,-5.4008,0,-5.3705,-5.3772,-5.3835,-5.3851,-5.3881,-5.391,-5.3924,-5.3946,-5.397,-5.4001,-5.4016,-5.4052,-5.4072,-5.4099,-5.4096,-5.4063,-5.4167,-5.4121,-5.4169,-5.417,-5.4193,-5.4192,-5.4333,-5.4205,-5.4204,-5.4204,-5.4204,0,-5.3813,-5.3869,-5.3873,-5.3912,-5.3974,-5.3969,-5.403,-5.404,-5.406,-5.41,-5.4081,-5.4118,-5.4111,-5.4148,-5.4145,-5.4204,-5.4212,-5.4215,-5.4214,-5.4217,-5.4217,-5.4231,-5.4225,-5.4208,-5.4207,-5.4206,-5.4206,0,-5.3915,-5.392,-5.3988,-5.4011,-5.4018,-5.4063,-5.4083,-5.4119,-5.4123,-5.4174,-5.4185,-5.4192,-5.4234,-5.4234,-5.4281,-5.4279,-5.4352,-5.4342,-5.4344,-5.4343,-5.4391,-5.4387,-5.4548,-5.4569,-5.4425,-5.4427,-5.4428,0,-5.3984,-5.4028,-5.4057,-5.4083,-5.4099,-5.4141,-5.4166,-5.4162,-5.4189,-5.4221,-5.4253,-5.4295,-5.4327,-5.4396,-5.4404,-5.444,-5.4432,-5.4486,-5.4438,-5.444,-5.4435,-5.4433,-5.4437,-5.4496,-5.4497,-5.4499,-5.45,0,-5.4107,-5.4108,-5.4146,-5.4185,-5.4217,-5.4247,-5.4274,-5.4296,-5.4295,-5.4326,-5.4371,-5.4396,-5.4446,-5.4487,-5.4522,-5.4534,-5.4517,-5.4515,-5.4528,-5.4533,-5.4533,-5.4535,-5.4371,-5.4511,-5.451,-5.4509,-5.4509,-5.4508,-5.4195,-5.4233,-5.426,-5.4304,-5.4325,-5.4351,-5.4387,-5.4397,-5.4435,-5.4477,-5.4471,-5.4521,-5.4544,-5.459,-5.4606,-5.4643,-5.4624,-5.4643,-5.4648,-5.4653,-5.4659,-5.4526,-5.4649,-5.4649,-5.4649,-5.4649,-5.4648,0,-5.4318,-5.4335,-5.4375,-5.4416,-5.445,-5.4432,-5.4462,-5.4491,-5.4536,-5.456,-5.4594,-5.4645,-5.4684,-5.4696,-5.4734,-5.4763,-5.4756,-5.4773,-5.4771,-5.4774,-5.4674,-5.4659,-5.4778,-5.4778,-5.4778,-5.4778,-5.4778,-5.4778,-5.4386,-5.445,-5.4454,-5.4527,-5.4543,-5.4593,-5.4612,-5.4636,-5.4656,-5.4715,-5.4749,-5.4756,-5.4776,-5.4815,-5.4851,-5.4853,-5.4868,-5.4889,-5.4888,-5.4794,-5.4781,-5.4769,-5.4755,-5.4892,-5.4892,-5.4986,-5.4987,-5.4987]}]]